CAPE
312 402 809 834 629 565 892 793 557 547 579 665 692 799 884 821 685 278 396 700 832 1000 901 812 962 1035 977 1012 1258 583 563 745 1395 2036 2144 2290 2090 1652 1356 1335 1344 1478 1132
337 419 1184 1021 955 1000 1311 1038 928 657 684 783 712 612 764 662 424 352 482 506 658 733 744 797 822 929 1254 1137 1262 1157 625 703 863 1763 2287 1930 2012 1649 1373 1155 852 1749 1430
342 706 1273 1528 1145 1028 945 1118 747 625 609 631 605 601 644 799 936 951 532 321 264 538 349 772 944 753 1289 1134 1189 1082 655 558 724 1201 1266 984 1081 1636 1551 1428 1610 1992 1895
462 617 855 1251 1345 1255 1302 1248 816 640 667 657 933 748 517 504 790 933 911 839 727 734 838 915 1133 944 801 1350 1487 1275 686 975 835 838 1273 779 836 1570 1800 1802 1756 2047 2121
469 582 1061 1293 1310 1433 1324 1137 865 806 1100 1070 854 971 985 1059 407 745 728 823 407 947 1095 816 997 1106 1105 1246 1348 967 1119 1142 847 964 545 900 888 1249 1880 1806 1723 1916 1791
437 999 1209 1321 1300 1251 1199 1148 1052 1062 860 806 848 1034 891 909 531 892 905 1068 853 850 947 1089 879 787 928 993 1285 1320 1082 1162 745 374 570 582 1037 1415 1641 1650 1490 1572 1464
528 808 1208 1371 1327 1246 1180 1108 977 896 1188 655 777 987 1100 1098 963 840 895 1009 827 672 915 955 1153 927 584 907 807 1016 1031 660 815 478 518 597 1284 1438 1593 1659 1515 1309 1384
228 295 754 1226 1262 1196 1086 951 881 929 1070 1132 1226 1255 1074 1065 1049 1004 1029 645 368 941 1129 1116 957 873 758 852 759 792 815 684 569 384 556 912 605 1234 1340 1213 1490 1446 1412
223 237 148 243 754 1088 1078 1068 1109 1219 931 823 1119 1243 1206 1058 1098 1079 849 870 1068 916 808 912 714 1197 923 699 729 681 622 662 809 313 514 761 523 702 1407 1336 1318 1480 1377
396 298 384 449 470 778 721 1407 1484 1150 1577 1630 1190 1394 839 322 1020 112 727 922 734 519 673 834 650 617 624 542 638 524 396 329 790 593 598 502 445 572 1144 1216 1370 1139 1287
281 195 213 313 933 901 771 1221 1611 1257 855 857 547 676 616 729 764 841 673 144 595 964 768 865 855 885 588 340 301 323 262 346 380 446 830 498 385 448 780 923 1024 1052 1102
215 183 469 574 704 1084 443 545 702 1260 1214 918 954 1035 902 1076 981 846 820 124 386 670 821 750 1087 1176 817 335 379 507 202 155 323 289 463 139 238 231 246 448 402 718 714
245 171 487 499 392 307 116 389 647 854 1399 1206 1603 1143 1040 1228 1112 1180 1164 1293 802 966 988 983 858 1204 1000 475 273 543 496 231 23 210 113 140 156 123 65 77 456 510 802
405 388 503 700 567 202 357 345 468 628 728 1035 1118 1299 1233 1368 1109 1164 933 990 1185 1035 1254 1259 1012 1232 998 1462 680 133 200 266 85 29 204 111 136 156 114 96 143 281 429
433 376 398 541 892 626 767 324 390 706 677 824 854 1222 1300 1194 1205 1078 1326 1057 1184 1189 1132 1009 1093 932 1332 1304 1169 925 354 529 428 155 56 43 89 140 169 106 102 131 195
316 305 336 463 747 803 966 882 886 982 1051 895 950 1353 1612 1714 1425 1616 1836 1316 1425 1235 1619 1439 1256 1160 964 817 656 804 821 262 605 672 289 108 82 142 175 140 49 17 43
204 247 308 245 374 768 998 1210 1087 977 861 974 1004 1515 1855 2038 1697 2000 2029 1214 1131 1421 1682 1475 167 174 46 52 56 77 504 979 1138 1056 854 382 179 69 135 183 116 0 1
10 131 231 104 367 710 780 970 861 918 801 808 875 1018 1841 2130 2425 2065 1552 1232 1380 1172 440 72 175 9 69 31 49 530 734 1144 1133 817 934 781 638 386 208 174 249 41 0
22 54 199 178 568 1037 1001 1103 1076 1053 1328 1108 979 993 2116 2297 2384 2249 1573 1501 1759 641 181 58 61 156 15 32 7 583 539 1043 869 758 719 921 1021 944 376 308 242 153 98
421 171 174 282 328 845 943 1325 1308 1085 1042 1047 1018 1305 2440 2012 2238 2139 1477 1758 1820 390 147 125 132 0 60 32 257 700 638 830 849 928 876 1230 1053 832 1281 1396 585 379 278
943 753 381 547 456 723 911 1111 1046 802 747 833 881 2168 2201 1930 1922 2092 1658 1475 1128 733 112 102 31 0 5 0 480 624 461 504 330 404 360 555 506 593 620 367 513 625 679
1112 1142 1209 629 924 930 1052 1109 1032 950 940 1048 1035 1593 2130 2130 1462 1889 1950 1276 1094 365 139 12 0 0 0 0 103 387 309 93 169 276 263 281 144 80 111 175 168 289 298
1077 1292 1343 1633 1048 1442 1451 1295 1400 1740 1906 1526 1288 1369 1645 2218 2056 1951 2048 1841 886 57 27 0 0 0 0 0 0 343 403 341 107 122 30 35 27 30 39 69 16 2 6
973 1323 1489 1740 1897 1552 1796 1505 1771 1719 1545 1099 1253 1259 1556 2318 1932 2328 2045 1598 751 73 0 0 0 0 6 0 0 0 66 208 192 160 64 1 14 13 20 36 25 4 1
819 1065 1461 1804 2181 2322 2118 1859 1814 1963 1369 1116 1169 1885 1954 2210 2130 2081 1883 1412 479 174 148 285 375 180 0 0 0 0 0 0 0 0 40 16 3 2 14 7 0 0 0
534 739 1136 1824 2331 2509 2566 2425 2416 2241 1888 1594 1328 1789 1408 1651 1832 1608 1712 1232 543 391 330 549 384 129 0 0 0 0 0 0 6 0 0 0 90 6 4 2 0 0 0
CIN
-2 -16 -1 0 -5 -6 -4 -9 -1 -13 -1 0 -3 -2 -8 -2 -5 -17 -7 0 -1 -1 0 0 0 0 -1 -8 -8 -39 -49 -40 -12 0 0 0 -2 -13 -13 -10 -26 -1 -11
-2 -13 -1 -1 -2 -1 0 -1 0 0 -53 -2 -16 -1 -3 -4 -13 -8 -4 -7 -3 -1 -1 0 0 0 0 -3 -1 -6 -42 -37 -38 -8 0 -2 0 -10 -23 -3 -35 -13 -4
-10 -6 0 0 -5 -4 -6 -1 -13 0 -14 0 0 0 -2 -2 0 0 -6 -13 -11 -4 -10 -4 0 -6 0 -1 -2 -5 -40 -51 -44 -26 -8 -9 -2 -8 -8 -6 -8 -7 -2
-6 -51 -9 -2 0 0 -1 0 -3 0 0 -2 0 -2 -2 -5 0 0 0 -2 -5 -5 -2 -1 -1 -5 -10 0 0 -1 -26 -22 -30 -29 -17 -13 -3 -14 -4 -4 -11 -2 0
-7 -5 -7 -1 -1 0 0 0 -1 -3 -1 -3 -4 -1 0 0 -8 0 -2 0 -9 -1 0 0 0 0 0 0 0 -3 0 -6 -19 -20 -6 -10 -9 -24 -1 -1 -7 -3 -3
-3 -17 -3 0 0 0 0 0 0 0 -11 -9 0 0 -1 0 0 -1 -1 0 0 -1 -1 0 0 0 0 0 0 -1 -1 -10 -23 0 -1 -10 -11 -7 -3 -1 -4 -3 -3
-5 -6 -3 -3 -1 0 -11 0 0 0 0 -5 -1 -1 -1 0 -1 0 0 0 -3 0 -1 -1 0 0 -4 0 -1 -1 -8 -23 -11 -1 -3 -1 -4 -2 0 0 -2 -6 -7
-3 -14 -29 -7 -1 0 0 -13 -12 -2 0 -1 0 0 -1 0 0 0 0 -2 -4 0 0 -1 0 -2 0 0 -1 -3 -11 -29 -5 -1 -1 -8 -39 -13 0 0 0 -2 -3
-7 -15 -69 -52 -14 -9 -7 -10 -4 0 0 -3 0 0 0 -5 -2 -1 -3 0 0 0 0 0 -2 0 0 -1 -5 -10 -20 -25 -17 -60 -4 -4 -44 -33 -1 0 0 0 0
-5 -12 -17 -30 -40 -8 -7 -2 0 -1 0 0 -3 0 -13 -31 -11 -52 -9 -3 -7 -6 -2 0 -5 -2 -6 -20 -11 -28 -40 -39 -8 -10 -10 -32 -47 -31 -5 0 0 -2 0
-11 -18 -19 -27 -2 -2 -1 -3 -1 -6 -21 -14 -25 -20 -31 -19 -6 -12 -10 -37 -16 -7 -11 -1 0 -3 -18 -35 -39 -38 -52 -6 -13 -39 -8 -39 -43 -27 -11 -2 -1 -3 -2
-24 -20 -2 -3 -3 -2 -1 -35 -2 -8 -9 -2 -1 -9 -9 -2 -1 -9 -8 -61 -34 -22 -12 -10 -2 -2 -21 -5 -28 -33 -54 -26 -8 -39 -30 -68 -58 -57 -53 -32 -25 -6 -4
-23 -22 -1 -3 -2 -2 -18 -6 -2 -2 -7 -2 -2 -2 -2 -2 -2 -13 -6 -4 -32 -31 -18 -24 -27 -2 -4 -14 -22 -17 -11 -55 -63 -19 -51 -77 -90 -57 -73 -86 -28 -34 -3
-12 -3 -2 -2 -4 -10 -5 -5 -3 -2 -1 -3 -2 -1 -3 -3 -2 -1 -1 -1 -2 -3 -6 -1 -4 0 -5 -2 -20 -49 -25 -26 -46 -37 -34 -62 -79 -63 -57 -54 -25 -16 -26
-24 -16 -6 -6 -19 -30 -13 -3 -2 -3 -1 -2 -2 -1 -1 -2 -2 -4 -2 -1 -2 -3 -1 -2 -2 -5 -1 -1 -4 -25 -29 -5 -18 -28 -14 -56 -50 -53 -47 -46 -44 -28 -13
-50 -38 -21 -27 -42 -32 -12 -2 -1 -2 -2 -2 -1 -7 -11 -2 -2 -8 0 -10 -2 -4 -4 -1 -2 0 -2 -2 -4 -15 -34 -16 -6 -5 -7 -30 -43 -33 -29 -25 -47 -36 -54
-72 -63 -27 -79 -66 -32 -15 -6 -2 -2 -1 -2 -2 -6 -6 -1 -2 -6 -2 -2 -1 0 -8 -3 -3 -2 -1 -4 -1 -2 -5 -2 0 0 -1 -12 -37 -59 -32 -30 -52 0 -71
-172 -91 -59 -110 -39 -40 -15 -14 -2 -3 -2 -1 -1 -1 -10 -1 0 -2 -2 -1 -1 -2 -1 -9 -3 -2 -8 -2 -18 -19 -10 -5 -5 -16 -4 -1 -22 -31 -46 -29 -32 -95 0
-140 -137 -85 -83 -6 -6 -18 -11 -6 -2 -3 -2 -1 -1 -3 0 0 -1 -2 -2 -5 -1 -1 -19 -16 -3 -2 -13 -2 -11 -10 -3 -6 -2 -5 -4 -3 -9 -37 -20 -38 -53 -64
-58 -104 -98 -70 -46 -10 -15 -19 -2 -1 -2 -3 -4 -2 -8 -1 -1 -2 -1 -3 -5 -2 -5 -5 -21 0 -14 -31 -2 -3 -13 -10 -10 -3 -1 -2 -2 -9 -2 0 -1 -5 -17
-7 -45 -78 -53 -71 -48 -40 -23 -10 -2 -1 -2 -3 -8 -2 -1 -3 0 -2 -3 -5 -5 -31 -24 -40 0 -1 0 -3 -3 -10 -4 -2 -3 -9 -4 -9 -2 -2 -13 -5 -1 0
-2 -24 -33 -54 -40 -44 -19 -7 -3 -1 -2 -2 -1 -2 -1 -1 -14 -1 -4 -2 -14 -1 -28 -16 0 0 0 0 -5 -12 -4 -5 -16 -15 -4 -2 -8 -36 -21 -1 -1 -1 -1
-14 -16 -36 -43 -51 -43 -11 -9 -1 -3 -6 -3 -3 -2 -2 -1 -1 -4 -1 -3 -10 -42 -11 0 0 0 0 0 0 -2 -4 -1 -13 -15 -22 -18 -26 -2 -1 -64 0 -1 -1
-35 -18 -22 -40 -39 -57 -32 -2 -2 -3 -2 -3 -2 -1 -1 -5 0 0 0 -1 -28 -35 0 0 0 0 -5 0 0 0 -42 -23 -1 -10 -20 -1 -2 -2 -1 -1 -1 -1 -1
-49 -30 -26 -40 -45 -29 -47 -23 -3 -7 -5 -2 -3 -6 -7 -4 -1 0 0 -3 -48 -42 -77 -40 -18 -58 0 0 0 0 0 0 0 0 -18 -2 -4 0 -2 0 0 0 0
-83 -80 -60 -47 -57 -55 -33 -44 -17 -1 -10 -3 -2 -7 -13 -18 -13 -5 -1 -12 -54 -44 -49 -16 -20 -44 0 0 0 0 0 0 -2 0 0 0 -17 -2 -1 -1 0 0 0
Wind_Speed
31 33 29 23 23 22 20 19 15 18 19 23 21 23 23 24 25 27 28 28 28 27 27 26 25 24 24 24 24 23 23 23 23 23 24 25 25 25 23 25 29 31 30
35 34 27 22 26 27 20 17 21 18 22 19 19 19 20 23 24 21 25 26 26 26 25 24 23 23 23 23 23 22 22 21 20 22 22 21 25 26 23 21 20 28 28
33 34 26 15 31 29 24 12 17 17 14 17 16 19 18 20 22 22 19 23 24 23 24 23 22 23 23 22 21 21 21 20 18 20 19 23 25 25 24 19 26 26 26
33 31 23 21 30 29 28 27 16 20 19 16 15 17 19 20 19 20 21 22 23 23 24 23 22 22 22 21 21 20 21 20 18 17 15 23 24 25 23 23 24 24 25
31 26 15 23 18 13 21 18 25 22 19 15 15 18 18 20 20 20 21 21 22 23 23 23 23 22 21 21 21 21 20 19 18 14 12 3 21 23 22 23 23 23 23
30 24 28 25 26 22 27 23 24 21 17 15 17 20 18 18 19 20 22 23 23 22 23 23 23 22 21 20 20 20 20 19 18 17 18 18 18 20 21 21 21 22 21
23 23 26 23 26 27 25 25 24 20 19 19 20 16 18 19 17 20 21 22 21 22 21 22 22 21 21 20 19 19 19 18 17 18 14 18 17 18 19 20 20 21 20
22 24 20 21 25 25 23 24 22 20 21 20 18 16 20 19 19 21 21 21 21 21 21 21 20 20 19 19 19 18 18 17 16 17 16 13 16 15 16 18 20 20 20
24 20 23 25 27 26 24 22 21 22 21 19 17 17 20 19 19 20 20 19 20 19 19 19 18 18 18 17 18 17 18 16 16 14 16 16 15 13 12 17 19 19 19
25 24 25 25 26 25 24 23 22 22 20 17 14 18 19 19 19 19 18 18 18 17 16 16 16 16 16 16 16 16 16 15 15 16 15 16 15 15 11 12 19 19 19
26 27 25 25 23 25 22 22 22 22 21 20 19 19 18 18 17 17 18 18 17 17 15 14 14 14 14 14 15 13 15 15 12 16 11 15 14 12 11 12 19 19 20
24 26 24 24 21 23 21 18 21 20 20 19 14 19 11 8 11 16 16 16 16 15 13 13 13 12 12 11 12 12 13 15 13 11 11 12 15 11 14 18 19 17 19
22 25 20 17 16 18 14 20 20 18 21 17 18 18 16 15 16 15 15 14 14 13 12 12 11 11 10 12 11 11 11 9 7 15 13 13 13 12 9 23 20 21 20
22 21 16 10 11 13 13 18 15 14 15 15 15 17 16 16 10 15 13 10 13 12 11 10 10 9 10 11 9 8 13 9 11 15 10 10 11 13 12 12 23 21 22
19 17 17 9 9 9 11 12 12 11 12 13 13 14 13 14 14 17 18 12 16 15 13 14 17 15 13 9 8 9 12 12 10 11 10 10 11 10 11 11 17 15 22
18 16 13 14 11 12 13 9 10 11 11 12 12 13 13 15 14 17 17 12 16 18 19 21 21 17 10 11 8 9 9 10 9 12 12 11 11 11 14 12 9 14 23
16 13 11 16 10 12 11 10 12 13 12 11 12 13 13 13 15 17 15 16 17 17 15 15 16 14 12 12 13 9 11 9 11 13 13 12 14 13 15 13 13 10 12
17 10 12 15 12 10 8 7 8 14 13 11 12 11 12 11 12 14 15 14 17 16 17 18 18 21 13 19 14 18 19 13 14 14 14 13 12 11 13 15 14 13 12
20 15 15 13 12 9 7 7 16 10 13 9 11 11 12 13 12 14 13 18 16 17 17 18 19 19 18 15 16 17 15 14 13 13 13 13 13 14 13 13 13 12 11
19 17 17 16 14 7 8 14 9 7 12 12 10 11 14 13 13 12 12 16 12 14 17 19 18 19 16 19 18 17 15 15 16 15 15 15 17 16 17 15 12 11 11
19 19 19 16 13 16 16 14 12 11 11 11 11 12 14 14 12 11 10 14 12 16 19 18 12 15 17 18 17 17 16 16 16 16 17 17 18 18 19 18 18 17 14
17 18 20 20 17 17 15 15 14 12 11 12 13 12 16 12 11 10 10 15 17 17 16 18 16 12 15 17 16 16 15 15 16 16 16 16 17 17 19 19 19 19 19
17 19 19 20 20 20 20 16 13 9 16 13 16 13 10 10 11 11 12 16 17 13 17 17 18 16 6 15 16 15 15 14 13 15 16 17 17 18 18 18 20 20 20
19 18 18 19 18 19 20 17 15 14 14 13 11 9 10 10 10 12 12 14 14 16 17 16 18 19 10 16 15 14 16 15 12 14 15 16 16 17 18 18 19 20 21
18 19 19 19 19 19 18 20 13 15 14 10 8 11 10 10 9 10 12 13 13 13 16 17 17 18 16 15 18 17 15 14 14 18 12 13 15 16 17 19 20 21 22
15 18 19 19 20 19 21 21 22 17 20 12 8 10 9 9 9 9 11 12 12 14 14 15 18 20 18 16 17 17 18 13 13 13 12 13 14 15 17 18 20 22 22
Wind_Direction
137 132 147 155 153 153 153 154 155 152 152 146 150 144 143 138 135 126 120 116 122 124 126 127 126 126 120 121 116 115 119 116 111 114 114 107 110 111 120 119 113 106 113
122 118 156 163 155 152 158 160 155 156 149 155 154 152 150 140 136 145 129 120 124 121 124 128 128 130 119 117 116 115 119 121 123 115 111 133 102 107 126 123 143 102 121
111 120 94 77 148 149 158 173 167 165 170 163 158 154 157 152 139 139 150 135 122 128 116 120 124 123 114 116 120 119 116 128 132 120 91 142 103 96 116 145 105 103 130
117 113 93 88 113 149 137 137 175 165 163 168 167 160 154 148 150 144 141 135 127 125 111 114 112 109 106 110 112 109 111 126 139 142 138 130 80 82 110 120 116 117 127
115 99 81 93 81 174 176 146 151 158 160 178 170 157 156 150 147 144 140 135 129 120 106 102 101 101 99 99 102 108 110 127 144 157 189 226 106 76 107 121 119 124 135
112 95 109 99 103 91 151 166 148 161 176 182 168 152 155 155 148 142 132 127 121 119 107 102 103 99 96 95 98 102 113 123 143 138 89 124 35 87 107 138 113 124 111
91 94 105 97 109 124 114 141 151 168 173 163 154 172 160 153 164 143 133 125 126 111 107 107 101 98 101 100 102 112 121 132 153 133 86 82 52 82 96 123 122 136 116
91 103 94 98 111 118 112 151 158 170 161 164 168 178 150 158 154 122 123 122 112 105 99 105 97 103 102 108 105 112 136 157 159 117 110 1 59 65 80 106 134 135 141
101 91 104 114 130 148 155 166 164 151 155 170 178 177 150 154 155 128 123 124 112 106 104 101 100 96 105 109 122 120 138 159 171 115 109 87 60 51 42 129 136 129 141
105 107 116 114 132 143 132 144 141 148 173 183 219 172 153 141 117 117 116 119 112 111 104 104 108 112 111 119 123 135 146 163 167 165 74 50 60 77 352 307 159 152 148
124 129 122 127 114 150 109 115 131 131 128 135 115 133 152 140 119 88 90 101 110 110 103 104 109 113 118 123 135 124 158 167 129 310 109 64 55 45 52 118 176 167 170
126 136 125 127 106 127 127 93 134 109 130 120 61 142 10 313 315 58 72 88 106 109 102 98 97 117 133 117 135 133 150 180 166 75 74 64 61 57 313 260 204 157 174
123 139 114 99 92 96 66 110 116 96 124 71 97 122 64 85 121 104 119 105 120 118 96 108 106 126 118 87 91 129 89 106 32 45 69 57 79 100 88 220 219 197 182
129 125 105 70 71 78 70 108 78 64 84 84 63 112 62 113 33 5 90 84 52 116 96 97 81 102 96 63 95 97 176 135 144 180 52 71 90 115 125 150 202 200 202
122 116 116 80 73 65 65 66 60 30 53 58 51 61 9 340 7 301 345 298 13 18 48 44 14 19 37 64 111 119 169 171 141 159 160 104 112 116 122 120 169 174 200
125 120 109 111 93 93 99 33 30 45 18 14 25 27 25 320 8 3 8 54 22 355 345 349 351 9 53 42 119 114 126 149 128 150 146 113 118 132 148 134 116 172 199
126 113 107 124 98 101 87 67 84 80 56 26 11 3 19 29 9 9 40 23 14 12 36 50 32 41 56 42 28 94 49 116 144 135 143 120 136 140 153 148 146 140 172
127 110 115 126 111 102 81 47 92 246 317 10 9 68 65 87 56 42 37 38 10 32 24 18 15 343 37 351 26 343 334 68 95 105 127 142 112 112 140 148 149 153 153
134 125 129 124 121 102 77 61 230 337 299 40 85 68 43 41 55 28 39 12 21 6 8 7 1 14 21 44 8 1 11 51 115 68 78 95 59 52 95 141 147 146 153
123 125 135 132 129 101 96 128 91 18 128 130 95 44 21 118 114 92 65 25 70 45 12 347 9 8 51 12 336 354 10 340 23 47 38 54 37 67 73 82 118 138 157
128 132 138 138 131 137 141 132 123 123 112 124 124 10 150 167 90 118 89 62 85 34 352 26 89 66 55 48 26 15 19 44 33 12 4 20 36 33 56 57 44 41 58
140 140 144 149 143 148 144 144 142 130 114 121 133 102 176 57 95 121 129 41 26 29 43 23 45 101 54 33 59 55 37 18 33 11 20 25 22 32 28 23 24 28 28
149 151 151 153 153 158 164 148 136 124 203 140 178 157 107 85 59 68 59 6 25 85 21 48 39 35 59 49 17 6 12 21 41 39 32 5 4 13 25 32 18 19 25
157 154 155 156 155 160 163 156 148 146 152 147 116 83 58 67 60 48 48 27 37 12 35 59 33 351 86 35 11 359 335 357 30 22 39 45 40 23 2 17 16 15 6
156 156 156 158 160 162 161 171 149 162 157 127 75 36 64 61 54 40 36 20 26 58 28 36 36 314 46 53 315 319 347 4 4 324 36 53 38 35 26 11 5 2 0
149 151 153 157 161 162 166 171 179 165 185 180 80 37 51 20 50 54 21 18 12 2 18 23 13 358 1 47 296 292 310 356 20 31 31 20 25 31 23 20 8 3 1